Regional Weather Roundup
Issued by NWS

Home | Current Version | Previous Version | Text Only | Print | Product List | Glossary Off
Versions: 1 2 3 4 5 6 7 8 9 10 11 12 13 14 15 16 17 18 19 20 21 22 23 24 25 26 27 28 29 30 31 32 33 34 35 36 37 38 39 40 41 42 43 44 45 46 47 48 49 50

111
ASUS45 KCYS 102110
RWRWY

WYOMING REGIONAL WEATHER ROUNDUP
NATIONAL WEATHER SERVICE CHEYENNE WY
200 PM MST SUN DEC 10 2017

NOTE:  "FAIR" INDICATES FEW OR NO CLOUDS BELOW 12,000 FEET
WITH NO SIGNIFICANT WEATHER AND/OR OBSTRUCTIONS TO VISIBILITY.

WYZ001-102200-
YELLOWSTONE NATIONAL PARK

CITY           SKY/WX    TMP DP  RH WIND       PRES   REMARKS
LK YELLOWSTONE   N/A     26  23  88 CALM      30.56F
W YELLOWSTONE  NOT AVBL

$$
WYZ002>013-054>058-071-098>099-102200-
NORTHERN WYOMING

CITY           SKY/WX    TMP DP  RH WIND       PRES   REMARKS
JACKSON        FAIR      32  18  56 NW3       30.59F
CODY           FAIR      40  18  41 NE9       30.33F WCI  34
GREYBULL       FAIR      40  16  37 CALM      30.35F
WORLAND        FAIR      46  20  35 W3        30.36F
SHERIDAN       FAIR      62   6  11 W6        30.26S
BUFFALO        FAIR      58   3  11 CALM      30.29S
GILLETTE       FAIR      52  16  24 W16       30.25F
HULETT         FAIR      46  18  31 SW10      30.24S
NEWCASTLE      FAIR      52   5  15 NW10      30.26F

$$
WYZ014>020-022>026-101>103-102200-
CENTRAL WYOMING

CITY           SKY/WX    TMP DP  RH WIND       PRES   REMARKS
BIG PINEY      FAIR      48   2  15 S6        30.48F
PINEDALE       FAIR      46  -4  12 W21G28    30.47S
DUBOIS         FAIR      48  -8   9 NW20G29   30.44R
LANDER         FAIR      35  18  49 SE3       30.37F
RIVERTON       FAIR      34  17  50 CALM      30.41F
CASPER         FAIR      41  17  38 SW23G32   30.36F
DOUGLAS        FAIR      49  20  31 NW17      30.31F

$$
WYZ021-027>030-104>119-102200-
SOUTHERN WYOMING

CITY           SKY/WX    TMP DP  RH WIND       PRES   REMARKS
EVANSTON       FAIR      45  13  27 SW7       30.53F
FORT BRIDGER   FAIR      49   2  15 W14G21    30.54F
ROCK SPRINGS   FAIR      43   6  21 W17       30.49F
DIXON          FAIR      35  16  46 CALM      30.55F
RAWLINS        FAIR      42  12  29 W9        30.47F
SARATOGA       FAIR      37  19  48 S10       30.49F WCI  30
LARAMIE        FAIR      44  10  25 NE9       30.41S
CHEYENNE       FAIR      56  -8   7 NW13G23   30.35F
TORRINGTON     FAIR      60   4  10 W14       30.28F
PINE BLUFFS    FAIR      57  -4   8 NW22G29   30.33S

$$




USA.gov is the U.S. government's official web portal to all federal, state and local government web resources and services.